Погода в Карабаново

Россия / Владимирская область     56°18′47″N   38°42′12″E
темп.,
°C
ветер,
м/с
пор.,
м/с
влажн.,
%
обл.,
%
осадки,
мм/ч
давл.,
гПа
погр.,
м
21 апреля, ср
ср2100:00+3в41297100 1.8 1013711
03:00+3в41297100 3.9 1009755
06:00+1всв41197100 2.6 1004482
09:00+1зсз2399100 5.2 1002111
12:00+3ююз4797100 0.1 1005588
15:00+4ююз4788100 0.2 1007942
18:00+4ююз3790100 0.1 1008554
21:00+3ююз2794100 0.1 1010273
22 апреля, чт
чт2200:00+3ю2795100 0.0 1011245
03:00+3ю3797100 0.0 1012258
06:00+3ю389694 0.4 1013271
09:00+6ююз588499 0.4 1014651
12:00+9ююз5877100 0.1 10151115
15:00+10ююз4876100 0.3 10151256
18:00+10ю597841 0.1 1015775
21:00+7ююв411898 0.1 1015303
23 апреля, пт
пт2300:00+7ююв4129489 0.0 1015363
03:00+6ююв4109610 0.0 1015298
06:00+6ююв4129622 0.0 1015347
09:00+11ю5127421 0.1 1015768
12:00+15ю7135560 0.3 10142172
15:00+15ю6125586 1.4 10132007
18:00+13ю51160100 0.8 10131039
21:00+9ююв378277 1.3 1012213
24 апреля, сб
сб2400:00+9ююв4137980 0.2 1010707
03:00+8юв4118671 0.3 1008453
06:00+6юз2592100 0.2 1006492
09:00+2зсз3797100 4.0 1007354
12:00+3з3898100 2.7 1008476
15:00+5з2587100 2.9 1008606
18:00+6з367395 0.8 1007613
21:00+2з238668 0.8 100858
25 апреля, вс
вс2500:00+1зюз28905 0.0 1007175
03:000зюз39925 0.0 1008215
06:000зюз310925 0.0 1008399
09:00+4зюз477152 0.0 10081140
12:00+6зюз685893 0.5 10081744
15:00+7з685698 1.2 10081760
18:00+6з376693 0.5 10091186
21:00+2юз278572 0.6 1010174